Time,TemperatureF,DewpointF,PressureIn,WindDirection,WindDirectionDegrees,WindSpeedMPH,WindSpeedGustMPH,Humidity,HourlyPrecipIn,Conditions,Clouds,dailyrainin,SoftwareType,DateUTC
2013-01-26 00:05:00,36.1,36.1,30.03,SSE,161,7.0,7.0,100,0.00,,,0.00,Wunderground v.1.15,2013-01-26 08:05:00,
2013-01-26 00:11:00,36.1,36.1,30.02,SSE,163,6.0,6.0,100,0.00,,,0.00,Wunderground v.1.15,2013-01-26 08:11:00,
2013-01-26 00:17:00,36.1,36.1,30.02,South,181,5.0,8.0,100,0.00,,,0.00,Wunderground v.1.15,2013-01-26 08:17:00,
2013-01-26 00:22:00,35.9,35.9,30.02,SSE,163,5.0,8.0,100,0.00,,,0.00,Wunderground v.1.15,2013-01-26 08:22:00,
2013-01-26 00:28:00,35.9,35.9,30.01,SSE,156,5.0,8.0,100,0.00,,,0.00,Wunderground v.1.15,2013-01-26 08:28:00,
2013-01-26 00:33:00,35.8,35.8,30.00,SE,143,5.0,6.0,100,0.00,,,0.00,Wunderground v.1.15,2013-01-26 08:33:00,
2013-01-26 00:39:00,35.8,35.8,30.00,SE,142,4.0,6.0,100,0.00,,,0.00,Wunderground v.1.15,2013-01-26 08:39:00,
2013-01-26 00:45:00,35.8,35.5,30.00,SSE,160,4.0,5.0,99,0.00,,,0.00,Wunderground v.1.15,2013-01-26 08:45:00,
2013-01-26 00:50:00,35.8,35.8,30.00,SSE,160,5.0,5.0,100,0.00,,,0.00,Wunderground v.1.15,2013-01-26 08:50:00,
2013-01-26 00:56:00,35.8,35.8,30.00,SSE,167,4.0,5.0,100,0.00,,,0.00,Wunderground v.1.15,2013-01-26 08:56:00,
2013-01-26 01:02:00,35.8,35.8,29.99,SSE,166,4.0,4.0,100,0.00,,,0.00,Wunderground v.1.15,2013-01-26 09:02:00,
2013-01-26 01:07:00,35.8,35.8,30.00,South,180,3.0,7.0,100,0.00,,,0.00,Wunderground v.1.15,2013-01-26 09:07:00,
2013-01-26 01:12:00,35.7,35.4,30.00,South,188,4.0,6.0,99,0.00,,,0.00,Wunderground v.1.15,2013-01-26 09:12:00,
2013-01-26 01:18:00,35.8,35.8,30.00,South,183,8.0,9.0,100,0.00,,,0.00,Wunderground v.1.15,2013-01-26 09:18:00,
2013-01-26 01:24:00,35.8,35.8,30.00,South,184,8.0,9.0,100,0.00,,,0.00,Wunderground v.1.15,2013-01-26 09:24:00,
2013-01-26 01:30:00,35.7,35.7,30.01,South,183,12.0,12.0,100,0.00,,,0.00,Wunderground v.1.15,2013-01-26 09:30:00,
2013-01-26 01:35:00,35.8,35.5,30.01,SSW,199,9.0,12.0,99,0.00,,,0.00,Wunderground v.1.15,2013-01-26 09:35:00,
2013-01-26 01:41:00,35.7,35.4,30.02,SSW,199,9.0,9.0,99,0.00,,,0.00,Wunderground v.1.15,2013-01-26 09:41:00,
2013-01-26 01:47:00,35.5,35.5,30.02,SW,215,11.0,11.0,100,0.00,,,0.00,Wunderground v.1.15,2013-01-26 09:47:00,
2013-01-26 01:53:00,35.3,35.3,30.02,SSW,204,10.0,10.0,100,0.00,,,0.00,Wunderground v.1.15,2013-01-26 09:53:00,
2013-01-26 01:59:00,35.3,35.0,30.02,SW,217,8.0,14.0,99,0.00,,,0.00,Wunderground v.1.15,2013-01-26 09:59:00,
2013-01-26 02:04:00,35.2,34.9,30.02,SW,217,11.0,12.0,99,0.00,,,0.00,Wunderground v.1.15,2013-01-26 10:04:00,
2013-01-26 02:09:00,35.1,34.8,30.02,SSW,193,8.0,17.0,99,0.00,,,0.00,Wunderground v.1.15,2013-01-26 10:09:00,
2013-01-26 02:14:00,35.1,34.8,30.02,SSW,213,13.0,15.0,99,0.00,,,0.00,Wunderground v.1.15,2013-01-26 10:14:00,
2013-01-26 02:19:00,35.0,35.0,30.01,SSW,209,9.0,15.0,100,0.00,,,0.00,Wunderground v.1.15,2013-01-26 10:19:00,
2013-01-26 02:24:00,34.9,34.9,30.01,SSW,209,9.0,11.0,100,0.00,,,0.00,Wunderground v.1.15,2013-01-26 10:24:00,
2013-01-26 02:29:00,34.9,34.9,30.01,SSW,211,7.0,9.0,100,0.00,,,0.00,Wunderground v.1.15,2013-01-26 10:29:00,
2013-01-26 02:35:00,34.8,34.8,30.01,SSW,204,12.0,15.0,100,0.00,,,0.00,Wunderground v.1.15,2013-01-26 10:35:00,
2013-01-26 02:40:00,34.6,34.3,30.00,South,179,9.0,11.0,99,0.00,,,0.00,Wunderground v.1.15,2013-01-26 10:40:00,
2013-01-26 02:45:00,34.4,34.4,29.97,SE,128,11.0,14.0,100,0.00,,,0.00,Wunderground v.1.15,2013-01-26 10:45:00,
2013-01-26 02:50:00,34.2,34.2,29.98,SSE,155,9.0,11.0,100,0.00,,,0.00,Wunderground v.1.15,2013-01-26 10:50:00,
2013-01-26 02:55:00,34.3,34.3,29.99,SSW,194,4.0,15.0,100,0.00,,,0.00,Wunderground v.1.15,2013-01-26 10:55:00,
2013-01-26 03:00:00,34.2,34.2,29.98,South,188,4.0,8.0,100,0.00,,,0.00,Wunderground v.1.15,2013-01-26 11:00:00,
2013-01-26 03:05:00,34.1,33.8,29.99,SW,229,5.0,8.0,99,0.00,,,0.00,Wunderground v.1.15,2013-01-26 11:05:00,
2013-01-26 03:10:00,34.1,33.8,29.99,WSW,243,5.0,6.0,99,0.00,,,0.00,Wunderground v.1.15,2013-01-26 11:10:00,
2013-01-26 03:15:00,34.1,33.8,29.99,WSW,242,7.0,8.0,99,0.00,,,0.00,Wunderground v.1.15,2013-01-26 11:15:00,
2013-01-26 03:20:00,33.9,33.6,29.98,WSW,257,4.0,7.0,99,0.00,,,0.00,Wunderground v.1.15,2013-01-26 11:20:00,
2013-01-26 03:25:00,33.9,33.6,29.99,WSW,257,8.0,8.0,99,0.00,,,0.00,Wunderground v.1.15,2013-01-26 11:25:00,
2013-01-26 03:30:00,33.7,33.7,29.99,SW,236,8.0,8.0,100,0.00,,,0.00,Wunderground v.1.15,2013-01-26 11:30:00,
2013-01-26 03:35:00,33.5,33.5,29.99,WSW,244,2.0,8.0,100,0.00,,,0.00,Wunderground v.1.15,2013-01-26 11:35:00,
2013-01-26 03:40:00,33.4,33.1,29.99,WSW,247,5.0,10.0,99,0.00,,,0.00,Wunderground v.1.15,2013-01-26 11:40:00,
2013-01-26 03:45:00,33.3,33.3,30.00,SW,229,10.0,11.0,100,0.00,,,0.00,Wunderground v.1.15,2013-01-26 11:45:00,
2013-01-26 03:50:00,33.2,33.2,30.00,SW,232,14.0,14.0,100,0.00,,,0.00,Wunderground v.1.15,2013-01-26 11:50:00,
2013-01-26 03:55:00,33.0,32.8,30.01,SW,231,9.0,14.0,99,0.00,,,0.00,Wunderground v.1.15,2013-01-26 11:55:00,
2013-01-26 04:01:00,32.8,32.6,30.01,SW,221,10.0,10.0,99,0.00,,,0.00,Wunderground v.1.15,2013-01-26 12:01:00,
2013-01-26 04:06:00,32.8,32.8,30.00,SW,219,7.0,11.0,100,0.00,,,0.00,Wunderground v.1.15,2013-01-26 12:06:00,
2013-01-26 04:11:00,32.7,32.7,30.00,WSW,237,8.0,10.0,100,0.00,,,0.00,Wunderground v.1.15,2013-01-26 12:11:00,
2013-01-26 04:16:00,32.6,32.6,30.00,SW,223,7.0,12.0,100,0.00,,,0.00,Wunderground v.1.15,2013-01-26 12:16:00,
2013-01-26 04:21:00,32.6,32.6,30.00,SW,230,10.0,11.0,100,0.00,,,0.00,Wunderground v.1.15,2013-01-26 12:21:00,
2013-01-26 04:26:00,32.5,32.3,30.00,SW,221,8.0,11.0,99,0.00,,,0.00,Wunderground v.1.15,2013-01-26 12:26:00,
2013-01-26 04:31:00,32.5,32.3,30.00,SW,217,8.0,9.0,99,0.00,,,0.00,Wunderground v.1.15,2013-01-26 12:31:00,
2013-01-26 04:36:00,32.5,32.3,30.00,SSW,211,8.0,10.0,99,0.00,,,0.00,Wunderground v.1.15,2013-01-26 12:36:00,
2013-01-26 04:41:00,32.5,32.3,29.99,SSW,207,7.0,9.0,99,0.00,,,0.00,Wunderground v.1.15,2013-01-26 12:41:00,
2013-01-26 04:46:00,32.5,32.3,29.99,SSW,211,14.0,14.0,99,0.00,,,0.00,Wunderground v.1.15,2013-01-26 12:46:00,
2013-01-26 04:51:00,32.4,32.2,30.00,SSW,208,7.0,10.0,99,0.00,,,0.00,Wunderground v.1.15,2013-01-26 12:51:00,
2013-01-26 04:56:00,32.5,32.3,29.99,SSW,213,7.0,11.0,99,0.00,,,0.00,Wunderground v.1.15,2013-01-26 12:56:00,
2013-01-26 05:01:00,32.4,32.2,30.00,SSW,200,7.0,8.0,99,0.00,,,0.00,Wunderground v.1.15,2013-01-26 13:01:00,
2013-01-26 05:06:00,32.4,32.2,30.00,SSW,211,8.0,10.0,99,0.00,,,0.00,Wunderground v.1.15,2013-01-26 13:06:00,
2013-01-26 05:11:00,32.4,32.2,30.00,SSW,213,10.0,10.0,99,0.00,,,0.00,Wunderground v.1.15,2013-01-26 13:11:00,
2013-01-26 05:16:00,32.4,32.2,29.99,SW,215,5.0,10.0,99,0.00,,,0.00,Wunderground v.1.15,2013-01-26 13:16:00,
2013-01-26 05:21:00,32.3,32.1,30.00,SW,214,8.0,9.0,99,0.00,,,0.00,Wunderground v.1.15,2013-01-26 13:21:00,
2013-01-26 05:26:00,32.3,32.1,30.00,SSW,206,7.0,9.0,99,0.00,,,0.00,Wunderground v.1.15,2013-01-26 13:26:00,
2013-01-26 05:31:00,32.3,32.1,29.99,SW,228,8.0,10.0,99,0.00,,,0.00,Wunderground v.1.15,2013-01-26 13:31:00,
2013-01-26 05:36:00,32.2,32.2,30.00,SW,219,8.0,10.0,100,0.00,,,0.00,Wunderground v.1.15,2013-01-26 13:36:00,
2013-01-26 05:41:00,32.2,32.2,30.00,SSW,202,7.0,8.0,100,0.00,,,0.00,Wunderground v.1.15,2013-01-26 13:41:00,
2013-01-26 05:46:00,32.1,32.1,30.00,SW,217,8.0,10.0,100,0.00,,,0.00,Wunderground v.1.15,2013-01-26 13:46:00,
2013-01-26 05:51:00,32.1,32.1,30.00,SW,218,8.0,8.0,100,0.00,,,0.00,Wunderground v.1.15,2013-01-26 13:51:00,
2013-01-26 05:56:00,32.1,32.1,30.00,SW,226,7.0,9.0,100,0.00,,,0.00,Wunderground v.1.15,2013-01-26 13:56:00,
2013-01-26 06:02:00,32.1,32.1,30.00,SW,230,7.0,9.0,100,0.00,,,0.00,Wunderground v.1.15,2013-01-26 14:02:00,
2013-01-26 06:07:00,32.1,32.1,30.00,SW,227,7.0,14.0,100,0.00,,,0.00,Wunderground v.1.15,2013-01-26 14:07:00,
2013-01-26 06:12:00,32.1,32.1,30.00,SW,221,5.0,9.0,100,0.00,,,0.00,Wunderground v.1.15,2013-01-26 14:12:00,
2013-01-26 06:17:00,32.0,32.0,30.01,SSW,201,6.0,9.0,100,0.00,,,0.00,Wunderground v.1.15,2013-01-26 14:17:00,
2013-01-26 06:22:00,32.0,32.0,30.01,SW,223,12.0,12.0,100,0.00,,,0.00,Wunderground v.1.15,2013-01-26 14:22:00,
2013-01-26 06:27:00,31.9,31.7,30.01,SW,222,10.0,13.0,99,0.00,,,0.00,Wunderground v.1.15,2013-01-26 14:27:00,
2013-01-26 06:32:00,31.8,31.8,30.00,SW,224,12.0,12.0,100,0.00,,,0.00,Wunderground v.1.15,2013-01-26 14:32:00,
2013-01-26 06:37:00,31.8,31.8,30.01,SW,221,6.0,12.0,100,0.00,,,0.00,Wunderground v.1.15,2013-01-26 14:37:00,
2013-01-26 06:42:00,31.8,31.8,30.01,SW,232,7.0,10.0,100,0.00,,,0.00,Wunderground v.1.15,2013-01-26 14:42:00,
2013-01-26 06:47:00,31.8,31.8,30.01,SW,221,5.0,10.0,100,0.00,,,0.00,Wunderground v.1.15,2013-01-26 14:47:00,
2013-01-26 06:52:00,31.8,31.8,30.01,SW,221,7.0,8.0,100,0.00,,,0.00,Wunderground v.1.15,2013-01-26 14:52:00,
2013-01-26 06:57:00,31.7,31.7,30.01,SW,221,6.0,9.0,100,0.00,,,0.00,Wunderground v.1.15,2013-01-26 14:57:00,
2013-01-26 07:02:00,31.7,31.7,30.01,SW,221,6.0,7.0,100,0.00,,,0.00,Wunderground v.1.15,2013-01-26 15:02:00,
2013-01-26 07:07:00,31.6,31.6,30.00,SW,221,11.0,13.0,100,0.00,,,0.00,Wunderground v.1.15,2013-01-26 15:07:00,
2013-01-26 07:12:00,31.5,31.3,30.01,SW,221,8.0,11.0,99,0.00,,,0.00,Wunderground v.1.15,2013-01-26 15:12:00,
2013-01-26 07:17:00,31.4,31.2,30.01,SW,221,8.0,13.0,99,0.00,,,0.00,Wunderground v.1.15,2013-01-26 15:17:00,
2013-01-26 07:22:00,31.4,31.2,30.01,SW,221,8.0,13.0,99,0.00,,,0.00,Wunderground v.1.15,2013-01-26 15:22:00,
2013-01-26 07:27:00,31.4,31.2,30.01,SW,221,7.0,13.0,99,0.00,,,0.00,Wunderground v.1.15,2013-01-26 15:27:00,
2013-01-26 07:33:00,31.4,31.2,30.01,SW,221,6.0,11.0,99,0.00,,,0.00,Wunderground v.1.15,2013-01-26 15:33:00,
2013-01-26 07:38:00,31.4,31.2,30.02,SW,221,4.0,11.0,99,0.00,,,0.00,Wunderground v.1.15,2013-01-26 15:38:00,
2013-01-26 07:43:00,31.4,31.2,30.02,SW,221,8.0,8.0,99,0.00,,,0.00,Wunderground v.1.15,2013-01-26 15:43:00,
2013-01-26 07:48:00,31.4,31.2,30.02,SW,221,5.0,8.0,99,0.00,,,0.00,Wunderground v.1.15,2013-01-26 15:48:00,
2013-01-26 07:54:00,31.4,31.2,30.02,SW,221,5.0,7.0,99,0.00,,,0.00,Wunderground v.1.15,2013-01-26 15:54:00,
2013-01-26 07:59:00,31.4,31.2,30.02,SW,221,7.0,7.0,99,0.00,,,0.00,Wunderground v.1.15,2013-01-26 15:59:00,
2013-01-26 08:04:00,31.4,31.2,30.02,SW,221,8.0,9.0,99,0.00,,,0.00,Wunderground v.1.15,2013-01-26 16:04:00,
2013-01-26 08:09:00,31.4,31.2,30.02,SW,221,9.0,9.0,99,0.00,,,0.00,Wunderground v.1.15,2013-01-26 16:09:00,
2013-01-26 08:14:00,31.4,31.2,30.02,SW,221,8.0,10.0,99,0.00,,,0.00,Wunderground v.1.15,2013-01-26 16:14:00,
2013-01-26 08:19:00,31.4,31.2,30.02,SW,221,7.0,10.0,99,0.00,,,0.00,Wunderground v.1.15,2013-01-26 16:19:00,
2013-01-26 08:24:00,31.4,31.2,30.02,SW,221,8.0,8.0,99,0.00,,,0.00,Wunderground v.1.15,2013-01-26 16:24:00,
2013-01-26 08:29:00,31.3,31.1,30.02,SW,221,7.0,10.0,99,0.00,,,0.00,Wunderground v.1.15,2013-01-26 16:29:00,
2013-01-26 08:34:00,31.2,31.2,30.01,SW,221,7.0,10.0,100,0.00,,,0.00,Wunderground v.1.15,2013-01-26 16:34:00,
2013-01-26 08:39:00,31.2,31.2,30.01,SW,221,2.0,10.0,100,0.00,,,0.00,Wunderground v.1.15,2013-01-26 16:39:00,
2013-01-26 08:44:00,31.2,31.2,30.02,SW,221,2.0,6.0,100,0.00,,,0.00,Wunderground v.1.15,2013-01-26 16:44:00,
2013-01-26 08:49:00,31.2,31.2,30.02,SW,221,1.0,6.0,100,0.00,,,0.00,Wunderground v.1.15,2013-01-26 16:49:00,
2013-01-26 08:54:00,31.2,31.2,30.02,SW,221,2.0,5.0,100,0.00,,,0.00,Wunderground v.1.15,2013-01-26 16:54:00,
2013-01-26 08:59:00,31.2,31.2,30.02,SW,221,3.0,5.0,100,0.00,,,0.00,Wunderground v.1.15,2013-01-26 16:59:00,
2013-01-26 09:04:00,31.2,31.2,30.02,SW,221,4.0,5.0,100,0.00,,,0.00,Wunderground v.1.15,2013-01-26 17:04:00,
2013-01-26 09:09:00,31.2,31.2,30.02,SW,221,1.0,5.0,100,0.00,,,0.00,Wunderground v.1.15,2013-01-26 17:09:00,
2013-01-26 09:14:00,31.2,31.2,30.02,SW,221,0.0,4.0,100,0.00,,,0.00,Wunderground v.1.15,2013-01-26 17:14:00,
2013-01-26 09:19:00,31.3,31.3,30.03,SW,221,4.0,5.0,100,0.00,,,0.00,Wunderground v.1.15,2013-01-26 17:19:00,
2013-01-26 09:24:00,31.3,31.1,30.03,SW,221,5.0,7.0,99,0.00,,,0.00,Wunderground v.1.15,2013-01-26 17:24:00,
2013-01-26 09:29:00,31.4,31.2,30.03,SW,221,8.0,10.0,99,0.00,,,0.00,Wunderground v.1.15,2013-01-26 17:29:00,
2013-01-26 09:34:00,31.2,31.2,30.03,SW,221,9.0,11.0,100,0.00,,,0.00,Wunderground v.1.15,2013-01-26 17:34:00,
2013-01-26 09:40:00,31.1,31.1,30.04,SW,221,13.0,13.0,100,0.00,,,0.00,Wunderground v.1.15,2013-01-26 17:40:00,
2013-01-26 09:45:00,31.0,31.0,30.04,SW,221,10.0,13.0,100,0.00,,,0.00,Wunderground v.1.15,2013-01-26 17:45:00,
2013-01-26 09:50:00,31.0,31.0,30.04,SW,221,7.0,9.0,100,0.00,,,0.00,Wunderground v.1.15,2013-01-26 17:50:00,
2013-01-26 09:55:00,31.0,31.0,30.04,SW,221,8.0,10.0,100,0.00,,,0.00,Wunderground v.1.15,2013-01-26 17:55:00,
2013-01-26 10:00:00,31.1,31.1,30.04,SW,221,7.0,8.0,100,0.00,,,0.00,Wunderground v.1.15,2013-01-26 18:00:00,
2013-01-26 10:05:00,31.0,31.0,30.04,SW,221,6.0,9.0,100,0.00,,,0.00,Wunderground v.1.15,2013-01-26 18:05:00,
2013-01-26 10:10:00,31.0,31.0,30.04,SW,221,5.0,8.0,100,0.00,,,0.00,Wunderground v.1.15,2013-01-26 18:10:00,
2013-01-26 10:15:00,31.1,31.1,30.04,SW,221,7.0,10.0,100,0.00,,,0.00,Wunderground v.1.15,2013-01-26 18:15:00,
2013-01-26 10:20:00,31.2,31.2,30.04,SW,221,11.0,12.0,100,0.00,,,0.00,Wunderground v.1.15,2013-01-26 18:20:00,
2013-01-26 10:25:00,31.1,31.1,30.04,SW,221,6.0,12.0,100,0.00,,,0.00,Wunderground v.1.15,2013-01-26 18:25:00,
2013-01-26 10:30:00,31.1,31.1,30.04,SW,221,12.0,12.0,100,0.00,,,0.00,Wunderground v.1.15,2013-01-26 18:30:00,
2013-01-26 10:35:00,31.0,31.0,30.04,SW,221,6.0,12.0,100,0.00,,,0.00,Wunderground v.1.15,2013-01-26 18:35:00,
2013-01-26 10:40:00,31.1,31.1,30.04,SW,221,7.0,9.0,100,0.00,,,0.00,Wunderground v.1.15,2013-01-26 18:40:00,
2013-01-26 10:46:00,31.1,31.1,30.04,SW,221,4.0,9.0,100,0.00,,,0.00,Wunderground v.1.15,2013-01-26 18:46:00,
2013-01-26 10:51:00,31.1,30.9,30.04,SW,221,6.0,10.0,99,0.00,,,0.00,Wunderground v.1.15,2013-01-26 18:51:00,
2013-01-26 10:56:00,31.0,30.8,30.04,SW,221,7.0,10.0,99,0.00,,,0.00,Wunderground v.1.15,2013-01-26 18:56:00,
2013-01-26 11:01:00,30.9,30.7,30.04,SW,221,8.0,10.0,99,0.00,,,0.00,Wunderground v.1.15,2013-01-26 19:01:00,
2013-01-26 11:06:00,31.0,30.8,30.03,SW,221,7.0,10.0,99,0.00,,,0.00,Wunderground v.1.15,2013-01-26 19:06:00,
2013-01-26 11:11:00,31.1,30.9,30.03,SW,221,6.0,8.0,99,0.00,,,0.00,Wunderground v.1.15,2013-01-26 19:11:00,
2013-01-26 11:15:00,31.1,30.9,30.03,SW,221,8.0,9.0,99,0.00,,,0.00,Wunderground v.1.15,2013-01-26 19:15:00,
2013-01-26 11:20:00,31.1,30.9,30.03,SW,221,7.0,10.0,99,0.00,,,0.00,Wunderground v.1.15,2013-01-26 19:20:00,
2013-01-26 11:26:00,31.1,30.9,30.03,SW,221,7.0,11.0,99,0.00,,,0.00,Wunderground v.1.15,2013-01-26 19:26:00,
2013-01-26 11:31:00,31.1,30.9,30.03,SW,221,11.0,14.0,99,0.00,,,0.00,Wunderground v.1.15,2013-01-26 19:31:00,
2013-01-26 11:36:00,31.2,31.0,30.03,SW,221,11.0,14.0,99,0.00,,,0.00,Wunderground v.1.15,2013-01-26 19:36:00,
2013-01-26 11:41:00,31.3,31.1,30.03,SW,221,6.0,9.0,99,0.00,,,0.00,Wunderground v.1.15,2013-01-26 19:41:00,
2013-01-26 11:46:00,31.4,31.2,30.03,SW,221,4.0,9.0,99,0.00,,,0.00,Wunderground v.1.15,2013-01-26 19:46:00,
2013-01-26 11:51:00,31.5,31.5,30.03,SW,221,7.0,7.0,100,0.00,,,0.00,Wunderground v.1.15,2013-01-26 19:51:00,
2013-01-26 11:56:00,31.6,31.4,30.03,SW,221,6.0,9.0,99,0.00,,,0.00,Wunderground v.1.15,2013-01-26 19:56:00,
2013-01-26 12:01:00,31.7,31.5,30.03,SW,221,6.0,7.0,99,0.00,,,0.00,Wunderground v.1.15,2013-01-26 20:01:00,
2013-01-26 12:06:00,31.8,31.6,30.03,SW,221,8.0,9.0,99,0.00,,,0.00,Wunderground v.1.15,2013-01-26 20:06:00,
2013-01-26 12:11:00,31.8,31.6,30.03,SW,221,2.0,10.0,99,0.00,,,0.00,Wunderground v.1.15,2013-01-26 20:11:00,
2013-01-26 12:16:00,32.0,32.0,30.03,SSW,202,4.0,10.0,100,0.00,,,0.00,Wunderground v.1.15,2013-01-26 20:16:00,
2013-01-26 12:21:00,32.0,31.8,30.02,SSW,212,7.0,10.0,99,0.00,,,0.00,Wunderground v.1.15,2013-01-26 20:21:00,
2013-01-26 12:26:00,32.0,31.8,30.02,SW,219,7.0,10.0,99,0.00,,,0.00,Wunderground v.1.15,2013-01-26 20:26:00,
2013-01-26 12:31:00,32.1,31.9,30.02,SSW,198,6.0,9.0,99,0.00,,,0.00,Wunderground v.1.15,2013-01-26 20:31:00,
2013-01-26 12:36:00,32.1,31.9,30.02,SSW,211,6.0,10.0,99,0.00,,,0.00,Wunderground v.1.15,2013-01-26 20:36:00,
2013-01-26 12:41:00,32.1,31.9,30.02,SW,217,5.0,7.0,99,0.00,,,0.00,Wunderground v.1.15,2013-01-26 20:41:00,
2013-01-26 12:46:00,32.1,31.9,30.02,SSW,207,5.0,9.0,99,0.00,,,0.00,Wunderground v.1.15,2013-01-26 20:46:00,
2013-01-26 12:51:00,32.1,31.9,30.02,SW,225,3.0,6.0,99,0.00,,,0.00,Wunderground v.1.15,2013-01-26 20:51:00,
2013-01-26 12:56:00,32.2,32.0,30.02,SSW,213,5.0,7.0,99,0.00,,,0.00,Wunderground v.1.15,2013-01-26 20:56:00,
2013-01-26 13:02:00,32.2,32.0,30.02,SSW,194,6.0,8.0,99,0.00,,,0.00,Wunderground v.1.15,2013-01-26 21:02:00,
2013-01-26 13:07:00,32.2,32.0,30.02,SW,217,9.0,9.0,99,0.00,,,0.00,Wunderground v.1.15,2013-01-26 21:07:00,
2013-01-26 13:12:00,32.2,32.0,30.02,SSW,209,6.0,7.0,99,0.00,,,0.00,Wunderground v.1.15,2013-01-26 21:12:00,
2013-01-26 13:17:00,32.3,32.1,30.01,SW,223,4.0,7.0,99,0.00,,,0.00,Wunderground v.1.15,2013-01-26 21:17:00,
2013-01-26 13:22:00,32.3,32.1,30.02,SSW,211,2.0,6.0,99,0.00,,,0.00,Wunderground v.1.15,2013-01-26 21:22:00,
2013-01-26 13:27:00,32.3,32.1,30.01,SSW,211,5.0,6.0,99,0.00,,,0.00,Wunderground v.1.15,2013-01-26 21:27:00,
2013-01-26 13:32:00,32.4,32.2,30.01,SW,236,2.0,4.0,99,0.00,,,0.00,Wunderground v.1.15,2013-01-26 21:32:00,
2013-01-26 13:37:00,32.3,32.1,30.01,SSW,208,0.0,5.0,99,0.00,,,0.00,Wunderground v.1.15,2013-01-26 21:37:00,
2013-01-26 13:42:00,32.4,32.2,30.01,SSW,208,1.0,3.0,99,0.00,,,0.00,Wunderground v.1.15,2013-01-26 21:42:00,
2013-01-26 13:47:00,32.4,32.2,30.01,SSW,208,0.0,3.0,99,0.00,,,0.00,Wunderground v.1.15,2013-01-26 21:47:00,
2013-01-26 13:52:00,32.5,32.3,30.01,SSW,208,3.0,5.0,99,0.00,,,0.00,Wunderground v.1.15,2013-01-26 21:52:00,
2013-01-26 13:57:00,32.5,32.3,30.01,SSW,208,2.0,5.0,99,0.00,,,0.00,Wunderground v.1.15,2013-01-26 21:57:00,
2013-01-26 14:02:00,32.6,32.4,30.01,SSW,208,0.0,3.0,99,0.00,,,0.00,Wunderground v.1.15,2013-01-26 22:02:00,
2013-01-26 14:07:00,32.6,32.4,30.01,SSW,208,0.0,3.0,99,0.00,,,0.00,Wunderground v.1.15,2013-01-26 22:07:00,
2013-01-26 14:12:00,32.6,32.4,30.01,SSW,208,1.0,2.0,99,0.00,,,0.00,Wunderground v.1.15,2013-01-26 22:12:00,
2013-01-26 14:17:00,32.6,32.4,30.01,SSW,208,3.0,5.0,99,0.00,,,0.00,Wunderground v.1.15,2013-01-26 22:17:00,
2013-01-26 14:22:00,32.7,32.5,30.01,SSW,208,5.0,6.0,99,0.00,,,0.00,Wunderground v.1.15,2013-01-26 22:22:00,
2013-01-26 14:27:00,32.8,32.6,30.01,SSW,208,2.0,6.0,99,0.00,,,0.00,Wunderground v.1.15,2013-01-26 22:27:00,
2013-01-26 14:32:00,32.8,32.6,30.01,SSW,208,5.0,5.0,99,0.00,,,0.00,Wunderground v.1.15,2013-01-26 22:32:00,
2013-01-26 14:37:00,32.8,32.3,30.01,SSW,201,4.0,7.0,98,0.00,,,0.00,Wunderground v.1.15,2013-01-26 22:37:00,
2013-01-26 14:42:00,32.9,32.4,30.01,SSW,201,4.0,7.0,98,0.00,,,0.00,Wunderground v.1.15,2013-01-26 22:42:00,
2013-01-26 14:47:00,33.0,32.5,30.01,SW,221,4.0,7.0,98,0.00,,,0.00,Wunderground v.1.15,2013-01-26 22:47:00,
2013-01-26 14:52:00,33.0,32.5,30.01,SSW,202,5.0,6.0,98,0.00,,,0.00,Wunderground v.1.15,2013-01-26 22:52:00,
2013-01-26 14:57:00,33.0,32.5,30.01,SSW,202,4.0,6.0,98,0.00,,,0.00,Wunderground v.1.15,2013-01-26 22:57:00,
2013-01-26 15:02:00,33.0,32.5,30.01,SSW,202,4.0,5.0,98,0.00,,,0.00,Wunderground v.1.15,2013-01-26 23:02:00,
2013-01-26 15:07:00,33.0,32.2,30.01,SSW,202,4.0,6.0,97,0.00,,,0.00,Wunderground v.1.15,2013-01-26 23:07:00,
2013-01-26 15:12:00,33.0,32.2,30.01,SSW,202,3.0,6.0,97,0.00,,,0.00,Wunderground v.1.15,2013-01-26 23:12:00,
2013-01-26 15:17:00,33.0,32.2,30.01,SSW,202,1.0,6.0,97,0.00,,,0.00,Wunderground v.1.15,2013-01-26 23:17:00,
2013-01-26 15:23:00,33.0,32.2,30.01,SSW,202,4.0,6.0,97,0.00,,,0.00,Wunderground v.1.15,2013-01-26 23:23:00,
2013-01-26 15:29:00,32.9,32.1,30.01,South,190,6.0,6.0,97,0.00,,,0.00,Wunderground v.1.15,2013-01-26 23:29:00,
2013-01-26 15:34:00,32.9,32.1,30.01,SSW,205,3.0,7.0,97,0.00,,,0.00,Wunderground v.1.15,2013-01-26 23:34:00,
2013-01-26 15:40:00,32.8,32.0,30.01,SSW,193,5.0,5.0,97,0.00,,,0.00,Wunderground v.1.15,2013-01-26 23:40:00,
2013-01-26 15:45:00,32.7,31.9,30.01,SSW,205,4.0,8.0,97,0.00,,,0.00,Wunderground v.1.15,2013-01-26 23:45:00,
2013-01-26 15:50:00,32.7,31.9,30.01,SSW,206,5.0,5.0,97,0.00,,,0.00,Wunderground v.1.15,2013-01-26 23:50:00,
2013-01-26 15:55:00,32.6,31.8,30.01,SSW,208,6.0,8.0,97,0.00,,,0.00,Wunderground v.1.15,2013-01-26 23:55:00,
2013-01-26 16:00:00,32.6,31.8,30.01,SSW,207,6.0,6.0,97,0.00,,,0.00,Wunderground v.1.15,2013-01-27 00:00:00,
2013-01-26 16:05:00,32.6,31.8,30.01,SSW,213,7.0,7.0,97,0.00,,,0.00,Wunderground v.1.15,2013-01-27 00:05:00,
2013-01-26 16:10:00,32.6,31.8,30.01,SSW,213,6.0,6.0,97,0.00,,,0.00,Wunderground v.1.15,2013-01-27 00:10:00,
2013-01-26 16:15:00,32.6,31.6,30.01,SSW,211,3.0,7.0,96,0.00,,,0.00,Wunderground v.1.15,2013-01-27 00:15:00,
2013-01-26 16:20:00,32.6,31.6,30.01,SSW,207,4.0,6.0,96,0.00,,,0.00,Wunderground v.1.15,2013-01-27 00:20:00,
2013-01-26 16:25:00,32.6,31.6,30.01,SSW,212,4.0,7.0,96,0.00,,,0.00,Wunderground v.1.15,2013-01-27 00:25:00,
2013-01-26 16:30:00,32.5,31.5,30.01,SSW,210,5.0,6.0,96,0.00,,,0.00,Wunderground v.1.15,2013-01-27 00:30:00,
2013-01-26 16:35:00,32.5,31.5,30.01,SSW,210,3.0,7.0,96,0.00,,,0.00,Wunderground v.1.15,2013-01-27 00:35:00,
2013-01-26 16:40:00,32.4,31.4,30.01,SSW,211,4.0,6.0,96,0.00,,,0.00,Wunderground v.1.15,2013-01-27 00:40:00,
2013-01-26 16:45:00,32.4,31.4,30.01,SSW,205,4.0,7.0,96,0.00,,,0.00,Wunderground v.1.15,2013-01-27 00:45:00,
2013-01-26 16:50:00,32.3,31.5,30.01,SSW,205,4.0,4.0,97,0.00,,,0.00,Wunderground v.1.15,2013-01-27 00:50:00,
2013-01-26 16:56:00,32.3,31.3,30.02,SSW,205,3.0,4.0,96,0.00,,,0.00,Wunderground v.1.15,2013-01-27 00:56:00,
2013-01-26 17:01:00,32.2,31.4,30.02,SSW,205,0.0,2.0,97,0.00,,,0.00,Wunderground v.1.15,2013-01-27 01:01:00,
2013-01-26 17:06:00,32.2,31.4,30.02,SSW,205,0.0,2.0,97,0.00,,,0.00,Wunderground v.1.15,2013-01-27 01:06:00,
2013-01-26 17:11:00,32.1,31.3,30.02,SSW,205,1.0,1.0,97,0.00,,,0.00,Wunderground v.1.15,2013-01-27 01:11:00,
2013-01-26 17:16:00,32.1,31.3,30.02,SSW,205,0.0,2.0,97,0.00,,,0.00,Wunderground v.1.15,2013-01-27 01:16:00,
2013-01-26 17:21:00,32.1,31.3,30.02,SSW,205,2.0,3.0,97,0.00,,,0.00,Wunderground v.1.15,2013-01-27 01:21:00,
2013-01-26 17:26:00,32.1,31.3,30.02,SSW,205,2.0,5.0,97,0.00,,,0.00,Wunderground v.1.15,2013-01-27 01:26:00,
2013-01-26 17:31:00,32.1,31.3,30.02,SSW,198,7.0,8.0,97,0.00,,,0.00,Wunderground v.1.15,2013-01-27 01:31:00,
2013-01-26 17:36:00,32.1,31.3,30.02,South,184,4.0,8.0,97,0.00,,,0.00,Wunderground v.1.15,2013-01-27 01:36:00,
2013-01-26 17:41:00,32.2,31.4,30.02,South,186,5.0,7.0,97,0.00,,,0.01,Wunderground v.1.15,2013-01-27 01:41:00,
2013-01-26 17:46:00,32.2,31.4,30.02,South,186,5.0,7.0,97,0.00,,,0.01,Wunderground v.1.15,2013-01-27 01:46:00,
2013-01-26 17:51:00,32.2,31.2,30.03,South,174,5.0,6.0,96,0.00,,,0.01,Wunderground v.1.15,2013-01-27 01:51:00,
2013-01-26 17:56:00,32.1,31.1,30.03,South,174,3.0,6.0,96,0.00,,,0.01,Wunderground v.1.15,2013-01-27 01:56:00,
2013-01-26 18:01:00,32.0,31.0,30.03,SSW,197,7.0,7.0,96,0.00,,,0.01,Wunderground v.1.15,2013-01-27 02:01:00,
2013-01-26 18:06:00,31.9,30.9,30.03,South,174,4.0,7.0,96,0.00,,,0.01,Wunderground v.1.15,2013-01-27 02:06:00,
2013-01-26 18:11:00,31.8,30.8,30.03,South,185,6.0,9.0,96,0.00,,,0.01,Wunderground v.1.15,2013-01-27 02:11:00,
2013-01-26 18:16:00,31.7,30.7,30.03,South,184,7.0,9.0,96,0.00,,,0.01,Wunderground v.1.15,2013-01-27 02:16:00,
2013-01-26 18:21:00,31.7,30.7,30.03,SSW,197,7.0,8.0,96,0.00,,,0.01,Wunderground v.1.15,2013-01-27 02:21:00,
2013-01-26 18:26:00,31.6,30.6,30.03,SSW,198,7.0,8.0,96,0.00,,,0.01,Wunderground v.1.15,2013-01-27 02:26:00,
2013-01-26 18:31:00,31.5,30.7,30.03,SSW,207,6.0,9.0,97,0.00,,,0.01,Wunderground v.1.15,2013-01-27 02:31:00,
2013-01-26 18:36:00,31.5,30.7,30.03,SSW,207,7.0,9.0,97,0.00,,,0.01,Wunderground v.1.15,2013-01-27 02:36:00,
2013-01-26 18:41:00,31.4,30.6,30.03,SSW,207,5.0,7.0,97,0.00,,,0.01,Wunderground v.1.15,2013-01-27 02:41:00,
2013-01-26 18:46:00,31.4,30.6,30.04,SSW,207,6.0,8.0,97,0.00,,,0.01,Wunderground v.1.15,2013-01-27 02:46:00,
2013-01-26 18:51:00,31.4,30.6,30.04,SSW,207,2.0,6.0,97,0.00,,,0.01,Wunderground v.1.15,2013-01-27 02:51:00,
2013-01-26 18:57:00,31.3,30.5,30.04,SSW,207,5.0,6.0,97,0.00,,,0.01,Wunderground v.1.15,2013-01-27 02:57:00,
2013-01-26 19:02:00,31.3,30.5,30.04,SSW,207,4.0,6.0,97,0.00,,,0.01,Wunderground v.1.15,2013-01-27 03:02:00,
2013-01-26 19:07:00,31.2,30.4,30.03,SSW,207,5.0,7.0,97,0.00,,,0.01,Wunderground v.1.15,2013-01-27 03:07:00,
2013-01-26 19:12:00,31.2,30.4,30.03,SSW,207,3.0,6.0,97,0.00,,,0.01,Wunderground v.1.15,2013-01-27 03:12:00,
2013-01-26 19:17:00,31.2,30.4,30.04,SSW,207,2.0,6.0,97,0.00,,,0.01,Wunderground v.1.15,2013-01-27 03:17:00,
2013-01-26 19:22:00,31.2,30.4,30.03,SSW,207,0.0,3.0,97,0.00,,,0.01,Wunderground v.1.15,2013-01-27 03:22:00,
2013-01-26 19:27:00,31.2,30.4,30.03,SSW,207,3.0,6.0,97,0.00,,,0.01,Wunderground v.1.15,2013-01-27 03:27:00,
2013-01-26 19:32:00,31.2,30.4,30.03,SSW,207,2.0,3.0,97,0.00,,,0.01,Wunderground v.1.15,2013-01-27 03:32:00,
2013-01-26 19:37:00,31.2,30.4,30.03,SSW,207,7.0,7.0,97,0.00,,,0.01,Wunderground v.1.15,2013-01-27 03:37:00,
2013-01-26 19:42:00,31.3,30.8,30.03,SSW,207,1.0,4.0,98,0.00,,,0.01,Wunderground v.1.15,2013-01-27 03:42:00,
2013-01-26 19:47:00,31.4,30.6,30.03,SSW,207,3.0,5.0,97,0.00,,,0.01,Wunderground v.1.15,2013-01-27 03:47:00,
2013-01-26 19:52:00,31.5,30.7,30.03,SSW,207,5.0,5.0,97,0.00,,,0.01,Wunderground v.1.15,2013-01-27 03:52:00,
2013-01-26 19:58:00,31.5,30.7,30.03,SSW,207,4.0,6.0,97,0.00,,,0.01,Wunderground v.1.15,2013-01-27 03:58:00,
2013-01-26 20:04:00,31.6,30.8,30.04,SSW,207,6.0,8.0,97,0.00,,,0.01,Wunderground v.1.15,2013-01-27 04:04:00,
2013-01-26 20:09:00,31.6,30.8,30.04,SSW,207,6.0,8.0,97,0.00,,,0.01,Wunderground v.1.15,2013-01-27 04:09:00,
2013-01-26 20:14:00,31.6,30.8,30.03,SSW,207,7.0,9.0,97,0.00,,,0.01,Wunderground v.1.15,2013-01-27 04:14:00,
2013-01-26 20:19:00,31.6,30.6,30.03,SSW,207,7.0,9.0,96,0.00,,,0.01,Wunderground v.1.15,2013-01-27 04:19:00,
2013-01-26 20:24:00,31.6,30.6,30.04,SSW,207,7.0,10.0,96,0.00,,,0.01,Wunderground v.1.15,2013-01-27 04:24:00,
2013-01-26 20:29:00,31.6,30.6,30.04,SSW,207,8.0,10.0,96,0.00,,,0.01,Wunderground v.1.15,2013-01-27 04:29:00,
2013-01-26 20:34:00,31.6,30.6,30.04,SSW,207,7.0,10.0,96,0.00,,,0.01,Wunderground v.1.15,2013-01-27 04:34:00,
2013-01-26 20:39:00,31.6,30.6,30.04,SSW,207,7.0,10.0,96,0.00,,,0.01,Wunderground v.1.15,2013-01-27 04:39:00,
2013-01-26 20:45:00,31.6,30.6,30.04,SSW,207,5.0,7.0,96,0.00,,,0.01,Wunderground v.1.15,2013-01-27 04:45:00,
2013-01-26 20:50:00,31.6,30.6,30.04,SSW,207,6.0,6.0,96,0.00,,,0.01,Wunderground v.1.15,2013-01-27 04:50:00,
2013-01-26 20:55:00,31.6,30.6,30.04,SSW,207,6.0,7.0,96,0.00,,,0.01,Wunderground v.1.15,2013-01-27 04:55:00,
2013-01-26 21:00:00,31.5,30.5,30.04,SSW,207,5.0,6.0,96,0.00,,,0.01,Wunderground v.1.15,2013-01-27 05:00:00,
2013-01-26 21:03:00,31.5,30.7,30.04,SSW,207,5.0,6.0,97,0.00,,,0.01,Wunderground v.1.15,2013-01-27 05:03:00,
2013-01-26 21:08:00,31.4,30.6,30.04,SSW,207,1.0,7.0,97,0.00,,,0.01,Wunderground v.1.15,2013-01-27 05:08:00,
2013-01-26 21:13:00,31.2,30.4,30.04,SSW,207,6.0,6.0,97,0.00,,,0.01,Wunderground v.1.15,2013-01-27 05:13:00,
2013-01-26 21:19:00,31.1,30.3,30.05,SSW,207,3.0,6.0,97,0.00,,,0.01,Wunderground v.1.15,2013-01-27 05:19:00,
2013-01-26 21:24:00,31.1,30.6,30.05,SSW,207,4.0,4.0,98,0.00,,,0.01,Wunderground v.1.15,2013-01-27 05:24:00,
2013-01-26 21:29:00,31.0,30.5,30.05,SSW,207,3.0,5.0,98,0.00,,,0.01,Wunderground v.1.15,2013-01-27 05:29:00,
2013-01-26 21:34:00,30.8,30.3,30.05,SSW,207,6.0,6.0,98,0.00,,,0.01,Wunderground v.1.15,2013-01-27 05:34:00,
2013-01-26 21:39:00,30.7,30.2,30.05,SSW,207,3.0,7.0,98,0.00,,,0.01,Wunderground v.1.15,2013-01-27 05:39:00,
2013-01-26 21:44:00,30.7,30.2,30.05,SSW,207,5.0,7.0,98,0.00,,,0.01,Wunderground v.1.15,2013-01-27 05:44:00,
2013-01-26 21:49:00,30.6,30.1,30.06,SSW,207,4.0,7.0,98,0.00,,,0.01,Wunderground v.1.15,2013-01-27 05:49:00,
2013-01-26 21:54:00,30.5,30.0,30.06,SSW,207,3.0,7.0,98,0.00,,,0.01,Wunderground v.1.15,2013-01-27 05:54:00,
2013-01-26 21:59:00,30.4,29.9,30.06,SSW,207,5.0,7.0,98,0.00,,,0.01,Wunderground v.1.15,2013-01-27 05:59:00,
2013-01-26 22:04:00,30.3,29.8,30.06,SSW,207,6.0,8.0,98,0.00,,,0.01,Wunderground v.1.15,2013-01-27 06:04:00,
2013-01-26 22:09:00,30.2,29.7,30.06,SSW,207,4.0,8.0,98,0.00,,,0.01,Wunderground v.1.15,2013-01-27 06:09:00,
2013-01-26 22:14:00,30.1,29.6,30.06,SSW,207,6.0,7.0,98,0.00,,,0.01,Wunderground v.1.15,2013-01-27 06:14:00,
2013-01-26 22:20:00,29.8,29.3,30.06,SSW,207,6.0,6.0,98,0.00,,,0.01,Wunderground v.1.15,2013-01-27 06:20:00,
2013-01-26 22:25:00,29.7,29.2,30.06,SSW,207,3.0,6.0,98,0.00,,,0.01,Wunderground v.1.15,2013-01-27 06:25:00,
2013-01-26 22:30:00,29.6,29.1,30.06,SSW,207,5.0,5.0,98,0.00,,,0.01,Wunderground v.1.15,2013-01-27 06:30:00,
2013-01-26 22:35:00,29.6,29.1,30.06,SSW,207,5.0,6.0,98,0.00,,,0.01,Wunderground v.1.15,2013-01-27 06:35:00,
2013-01-26 22:40:00,29.6,29.1,30.06,SSW,207,4.0,6.0,98,0.00,,,0.01,Wunderground v.1.15,2013-01-27 06:40:00,
2013-01-26 22:45:00,29.5,29.3,30.07,SSW,207,5.0,6.0,99,0.00,,,0.01,Wunderground v.1.15,2013-01-27 06:45:00,
2013-01-26 22:50:00,29.5,29.3,30.07,SSW,207,6.0,6.0,99,0.00,,,0.01,Wunderground v.1.15,2013-01-27 06:50:00,
2013-01-26 22:55:00,29.3,28.8,30.07,SSW,207,1.0,6.0,98,0.00,,,0.01,Wunderground v.1.15,2013-01-27 06:55:00,
2013-01-26 23:00:00,29.4,29.2,30.07,SSW,207,0.0,4.0,99,0.00,,,0.01,Wunderground v.1.15,2013-01-27 07:00:00,
2013-01-26 23:05:00,29.4,29.2,30.07,SSW,207,0.0,4.0,99,0.00,,,0.01,Wunderground v.1.15,2013-01-27 07:05:00,
2013-01-26 23:13:00,29.5,29.3,30.07,SSW,207,1.0,1.0,99,0.00,,,0.01,Wunderground v.1.15,2013-01-27 07:13:00,
2013-01-26 23:19:00,29.6,29.4,30.07,SSW,207,3.0,5.0,99,0.00,,,0.01,Wunderground v.1.15,2013-01-27 07:19:00,
2013-01-26 23:24:00,29.6,29.4,30.07,SSW,207,5.0,7.0,99,0.00,,,0.01,Wunderground v.1.15,2013-01-27 07:24:00,
2013-01-26 23:29:00,29.8,29.6,30.07,SSW,207,5.0,7.0,99,0.00,,,0.01,Wunderground v.1.15,2013-01-27 07:29:00,
2013-01-26 23:34:00,29.7,29.5,30.07,SSW,207,5.0,7.0,99,0.00,,,0.01,Wunderground v.1.15,2013-01-27 07:34:00,
2013-01-26 23:39:00,29.7,29.5,30.07,SSW,207,5.0,7.0,99,0.00,,,0.01,Wunderground v.1.15,2013-01-27 07:39:00,
2013-01-26 23:44:00,29.7,29.5,30.07,SSW,207,5.0,7.0,99,0.00,,,0.01,Wunderground v.1.15,2013-01-27 07:44:00,
2013-01-26 23:49:00,29.7,29.5,30.07,SSW,207,5.0,7.0,99,0.00,,,0.01,Wunderground v.1.15,2013-01-27 07:49:00,
2013-01-26 23:54:00,29.8,29.6,30.07,SSW,207,4.0,7.0,99,0.00,,,0.01,Wunderground v.1.15,2013-01-27 07:54:00,
2013-01-26 23:59:00,29.9,29.7,30.07,SSW,207,5.0,5.0,99,0.00,,,0.01,Wunderground v.1.15,2013-01-27 07:59:00,